QPF
0.06 0.03 0.02 0.00 0.00 0.00 0.00 0.00 0.00 0.00 0.00 0.00 0.00 0.00 0.00 0.00 0.00 0.00 0.00 0.03 0.04 0.01 0.02 0.00 0.00 0.00 0.00 0.00 0.00 0.00 0.00 0.00 0.00
0.15 0.02 0.02 0.00 0.00 0.00 0.00 0.00 0.00 0.00 0.00 0.00 0.00 0.00 0.00 0.00 0.00 0.00 0.00 0.04 0.05 0.01 0.01 0.00 0.00 0.00 0.00 0.00 0.00 0.00 0.00 0.00 0.00
0.02 0.00 0.00 0.00 0.00 0.00 0.00 0.00 0.00 0.00 0.00 0.00 0.00 0.00 0.00 0.00 0.00 0.00 0.01 0.21 0.20 0.05 0.03 0.02 0.01 0.00 0.00 0.00 0.00 0.00 0.00 0.00 0.00
0.00 0.00 0.00 0.00 0.01 0.00 0.00 0.00 0.00 0.00 0.00 0.00 0.00 0.00 0.00 0.00 0.00 0.00 0.01 0.10 0.07 0.03 0.02 0.02 0.03 0.01 0.00 0.00 0.00 0.00 0.00 0.00 0.00
0.00 0.00 0.00 0.00 0.00 0.00 0.00 0.00 0.00 0.00 0.00 0.00 0.00 0.00 0.00 0.00 0.00 0.00 0.02 0.09 0.12 0.09 0.07 0.07 0.06 0.06 0.01 0.00 0.00 0.00 0.00 0.00 0.00
0.00 0.00 0.00 0.00 0.01 0.00 0.00 0.00 0.00 0.00 0.00 0.00 0.00 0.00 0.00 0.00 0.00 0.00 0.00 0.04 0.07 0.06 0.07 0.09 0.03 0.01 0.00 0.00 0.00 0.00 0.00 0.00 0.00
0.00 0.00 0.00 0.00 0.00 0.00 0.00 0.00 0.00 0.00 0.00 0.00 0.00 0.00 0.00 0.00 0.00 0.00 0.01 0.04 0.04 0.02 0.03 0.05 0.05 0.02 0.01 0.00 0.00 0.00 0.00 0.00 0.00
0.00 0.00 0.00 0.00 0.00 0.00 0.00 0.00 0.00 0.00 0.00 0.00 0.00 0.00 0.00 0.00 0.00 0.00 0.00 0.03 0.05 0.02 0.04 0.04 0.02 0.00 0.00 0.00 0.00 0.00 0.00 0.00 0.00
0.00 0.00 0.00 0.00 0.00 0.00 0.00 0.00 0.00 0.00 0.00 0.00 0.00 0.00 0.00 0.00 0.00 0.00 0.00 0.01 0.06 0.02 0.03 0.06 0.01 0.00 0.00 0.00 0.00 0.00 0.00 0.00 0.00
0.00 0.00 0.00 0.00 0.00 0.00 0.00 0.00 0.00 0.00 0.00 0.00 0.00 0.00 0.00 0.00 0.00 0.00 0.00 0.00 0.01 0.01 0.00 0.05 0.01 0.00 0.00 0.00 0.00 0.00 0.00 0.00 0.00
0.00 0.00 0.00 0.00 0.01 0.01 0.01 0.00 0.00 0.00 0.00 0.00 0.00 0.00 0.00 0.00 0.00 0.00 0.00 0.00 0.00 0.00 0.00 0.02 0.10 0.07 0.00 0.00 0.00 0.00 0.00 0.00 0.00
0.00 0.00 0.00 0.00 0.00 0.00 0.01 0.00 0.00 0.00 0.00 0.00 0.00 0.00 0.00 0.00 0.00 0.00 0.00 0.00 0.00 0.00 0.00 0.00 0.06 0.13 0.07 0.00 0.00 0.00 0.00 0.00 0.00
0.00 0.00 0.00 0.00 0.00 0.00 0.00 0.00 0.00 0.00 0.00 0.00 0.00 0.00 0.00 0.00 0.00 0.00 0.00 0.00 0.00 0.00 0.00 0.00 0.00 0.04 0.09 0.05 0.01 0.00 0.00 0.00 0.00
0.00 0.00 0.00 0.00 0.00 0.00 0.00 0.00 0.00 0.00 0.00 0.00 0.00 0.00 0.00 0.00 0.00 0.00 0.00 0.00 0.00 0.00 0.00 0.00 0.00 0.00 0.02 0.07 0.10 0.04 0.00 0.00 0.00
0.00 0.00 0.00 0.00 0.00 0.00 0.00 0.00 0.00 0.00 0.00 0.00 0.00 0.00 0.00 0.00 0.00 0.00 0.00 0.00 0.00 0.00 0.00 0.00 0.00 0.00 0.00 0.00 0.05 0.07 0.03 0.00 0.00
0.00 0.00 0.00 0.00 0.00 0.00 0.00 0.00 0.00 0.00 0.00 0.00 0.00 0.00 0.00 0.00 0.00 0.00 0.00 0.00 0.00 0.00 0.00 0.00 0.00 0.00 0.00 0.00 0.00 0.04 0.08 0.03 0.00
0.00 0.00 0.00 0.00 0.00 0.00 0.00 0.00 0.00 0.00 0.00 0.00 0.00 0.00 0.00 0.00 0.00 0.00 0.00 0.00 0.00 0.00 0.00 0.00 0.00 0.00 0.00 0.00 0.00 0.01 0.08 0.10 0.02
0.00 0.00 0.00 0.00 0.00 0.00 0.00 0.00 0.00 0.00 0.00 0.00 0.00 0.00 0.00 0.00 0.00 0.00 0.00 0.00 0.00 0.00 0.00 0.00 0.00 0.00 0.00 0.00 0.00 0.00 0.03 0.08 0.05
0.00 0.00 0.00 0.00 0.00 0.00 0.00 0.00 0.00 0.00 0.00 0.00 0.00 0.00 0.00 0.00 0.00 0.00 0.00 0.00 0.00 0.00 0.00 0.00 0.00 0.00 0.00 0.00 0.00 0.00 0.03 0.05 0.05
0.00 0.00 0.00 0.00 0.00 0.00 0.00 0.00 0.00 0.00 0.00 0.00 0.00 0.00 0.00 0.00 0.00 0.00 0.00 0.00 0.00 0.00 0.00 0.00 0.00 0.00 0.00 0.00 0.00 0.00 0.01 0.08 0.11
MSLP
1018.60 1018.62 1018.84 1018.83 1018.81 1018.96 1018.90 1018.92 1019.00 1019.17 1019.00 1018.94 1018.70 1018.47 1018.50 1018.60 1018.67 1018.71 1018.73 1018.70 1018.60 1018.78 1018.90 1019.04 1019.19 1019.32 1019.41 1019.36 1019.36 1019.40 1019.44 1019.51 1019.62
1019.34 1019.32 1019.29 1019.09 1019.28 1019.50 1019.26 1019.29 1019.46 1019.48 1019.39 1019.28 1019.03 1018.98 1018.84 1018.90 1019.05 1019.13 1019.10 1019.01 1018.90 1019.02 1019.19 1019.34 1019.53 1019.68 1019.76 1019.83 1019.77 1019.78 1019.84 1019.88 1019.96
1019.79 1019.73 1019.63 1019.48 1019.62 1019.82 1019.65 1019.68 1019.81 1019.78 1019.72 1019.51 1019.24 1019.32 1019.32 1019.45 1019.40 1019.43 1019.47 1019.25 1019.30 1019.32 1019.55 1019.61 1019.77 1019.97 1020.01 1020.08 1020.08 1020.14 1020.31 1020.31 1020.34
1020.27 1020.12 1020.02 1019.84 1019.93 1020.12 1020.05 1020.18 1020.11 1020.09 1020.02 1019.80 1019.65 1019.84 1019.85 1019.73 1019.75 1019.75 1019.78 1019.52 1019.55 1019.67 1019.83 1019.81 1019.99 1020.24 1020.34 1020.39 1020.44 1020.49 1020.56 1020.71 1020.70
1020.71 1020.69 1020.59 1020.32 1020.27 1020.48 1020.48 1020.55 1020.50 1020.48 1020.35 1020.12 1020.12 1020.32 1020.33 1020.23 1020.16 1020.19 1020.07 1019.87 1019.88 1019.97 1020.06 1019.96 1020.13 1020.41 1020.52 1020.68 1020.75 1020.78 1020.83 1020.98 1021.04
1021.24 1021.20 1021.02 1020.70 1020.77 1020.86 1020.88 1020.91 1020.94 1020.95 1020.89 1020.74 1020.67 1020.74 1020.78 1020.63 1020.69 1020.52 1020.25 1020.28 1020.31 1020.16 1020.23 1020.29 1020.43 1020.60 1020.73 1020.94 1020.94 1021.03 1021.13 1021.30 1021.41
1021.67 1021.41 1021.29 1021.16 1021.20 1021.19 1021.16 1021.25 1021.34 1021.34 1021.37 1021.26 1021.20 1021.30 1021.31 1021.26 1021.07 1020.92 1020.54 1020.53 1020.61 1020.58 1020.70 1020.76 1020.83 1020.87 1021.00 1021.14 1021.15 1021.13 1021.37 1021.61 1021.74
1021.94 1021.81 1021.82 1021.67 1021.64 1021.70 1021.64 1021.73 1021.79 1021.77 1021.91 1021.77 1021.77 1021.91 1021.85 1021.91 1021.53 1021.35 1021.06 1020.95 1020.96 1020.99 1021.06 1021.10 1021.10 1021.17 1021.10 1021.17 1021.37 1021.45 1021.61 1021.92 1022.02
1022.63 1022.52 1022.25 1022.15 1022.16 1022.01 1022.05 1022.22 1022.33 1022.22 1022.31 1022.43 1022.14 1022.22 1022.36 1022.34 1022.10 1021.90 1021.61 1021.53 1021.34 1021.27 1021.33 1021.39 1021.38 1021.38 1021.49 1021.44 1021.66 1021.80 1021.96 1022.09 1022.14
1022.96 1022.93 1022.63 1022.38 1022.42 1022.29 1022.27 1022.45 1022.70 1022.84 1022.57 1022.61 1022.75 1022.83 1022.78 1022.50 1022.56 1022.38 1022.18 1022.19 1021.92 1021.67 1021.57 1021.63 1021.51 1021.54 1021.68 1021.72 1021.89 1022.10 1022.19 1022.25 1022.25
1023.52 1023.38 1023.05 1022.67 1022.57 1022.42 1022.49 1022.83 1023.05 1023.13 1023.15 1023.16 1023.32 1023.50 1023.45 1023.19 1023.01 1022.90 1022.76 1022.64 1022.62 1022.32 1022.18 1021.88 1021.61 1021.62 1021.80 1021.95 1022.04 1022.23 1022.31 1022.38 1022.38
1024.27 1023.89 1023.32 1023.14 1022.95 1022.89 1022.86 1023.19 1023.36 1023.59 1023.74 1023.72 1023.80 1023.88 1023.93 1023.67 1023.46 1023.34 1023.21 1023.07 1022.98 1022.84 1022.59 1022.34 1021.90 1021.81 1021.75 1021.95 1022.09 1022.29 1022.38 1022.34 1022.44
1025.20 1024.85 1024.57 1024.07 1023.48 1023.25 1023.29 1023.65 1023.73 1023.95 1024.01 1024.20 1024.35 1024.27 1024.06 1023.93 1023.98 1023.80 1023.63 1023.43 1023.37 1023.20 1022.91 1022.67 1022.44 1022.24 1022.06 1021.99 1022.00 1022.10 1022.30 1022.37 1022.50
1026.44 1026.13 1025.77 1025.00 1024.34 1023.93 1023.58 1023.81 1024.01 1024.21 1024.41 1024.59 1024.64 1024.60 1024.41 1024.14 1024.04 1024.00 1023.75 1023.61 1023.57 1023.55 1023.33 1023.04 1022.83 1022.71 1022.46 1022.17 1021.96 1021.86 1021.97 1022.24 1022.38
1027.72 1027.30 1026.88 1026.25 1025.57 1025.11 1024.38 1024.25 1024.21 1024.45 1024.51 1024.46 1024.46 1024.42 1024.44 1024.43 1024.34 1024.23 1023.94 1023.87 1023.79 1023.67 1023.60 1023.45 1023.26 1023.05 1022.80 1022.51 1022.17 1021.78 1021.86 1021.98 1022.20
1029.05 1028.62 1028.15 1027.64 1027.17 1026.99 1026.04 1025.19 1024.78 1024.66 1024.68 1024.62 1024.31 1024.15 1024.19 1024.22 1024.28 1024.34 1024.31 1024.11 1023.95 1023.82 1023.60 1023.50 1023.42 1023.35 1023.07 1022.75 1022.42 1022.11 1021.66 1021.88 1022.10
1030.22 1029.95 1029.55 1029.11 1028.45 1027.94 1027.47 1027.04 1026.29 1025.45 1025.24 1025.22 1025.03 1024.74 1024.62 1024.40 1024.34 1024.34 1024.35 1024.35 1024.30 1024.05 1023.82 1023.71 1023.58 1023.50 1023.30 1023.08 1022.80 1022.34 1022.06 1021.73 1021.83
1031.39 1031.13 1030.82 1030.39 1029.88 1029.56 1029.13 1028.49 1028.00 1027.21 1025.97 1025.82 1025.86 1025.38 1025.43 1025.26 1024.54 1024.31 1024.25 1024.21 1024.18 1023.95 1023.83 1023.67 1023.60 1023.45 1023.34 1023.14 1022.93 1022.61 1022.20 1021.89 1021.63
1032.64 1032.16 1031.73 1031.42 1031.04 1030.70 1030.30 1029.65 1029.16 1028.28 1027.62 1026.37 1026.11 1025.95 1025.92 1025.79 1025.29 1024.68 1024.34 1024.17 1024.11 1023.90 1023.78 1023.64 1023.38 1023.22 1023.13 1022.95 1022.83 1022.72 1022.38 1022.00 1021.62
1033.89 1033.37 1032.90 1032.43 1031.95 1031.63 1031.20 1030.31 1029.93 1029.51 1029.07 1028.60 1027.84 1026.70 1026.04 1025.89 1025.95 1024.94 1024.54 1024.15 1023.82 1023.57 1023.37 1023.15 1023.14 1022.91 1022.83 1022.74 1022.56 1022.42 1022.34 1021.96 1021.63
Thickness
5660 5660 5659 5658 5661 5662 5666 5669 5671 5672 5676 5678 5682 5687 5688 5689 5690 5690 5693 5696 5697 5697 5697 5697 5696 5696 5696 5697 5698 5698 5699 5699 5698
5653 5654 5654 5657 5657 5658 5662 5665 5665 5668 5671 5674 5678 5681 5684 5686 5686 5688 5689 5691 5692 5692 5692 5692 5692 5691 5691 5692 5693 5694 5694 5695 5694
5646 5648 5651 5653 5655 5655 5659 5661 5662 5665 5668 5671 5675 5676 5678 5679 5683 5684 5685 5685 5685 5685 5685 5687 5687 5687 5687 5687 5689 5689 5688 5689 5690
5644 5647 5648 5650 5651 5651 5655 5656 5659 5661 5664 5668 5670 5670 5672 5675 5677 5679 5679 5681 5680 5678 5680 5683 5683 5682 5683 5684 5684 5684 5684 5683 5684
5644 5644 5645 5648 5649 5648 5651 5653 5655 5658 5662 5664 5665 5664 5667 5670 5672 5674 5675 5676 5677 5676 5677 5679 5679 5678 5679 5678 5679 5680 5680 5679 5679
5641 5641 5643 5646 5646 5645 5646 5648 5650 5653 5656 5658 5659 5661 5662 5666 5667 5670 5672 5671 5671 5672 5673 5673 5673 5673 5675 5674 5676 5676 5675 5674 5674
5639 5641 5642 5643 5643 5644 5645 5645 5645 5648 5651 5654 5655 5656 5658 5659 5663 5665 5667 5667 5667 5668 5668 5668 5669 5670 5670 5670 5671 5672 5671 5669 5668
5638 5639 5639 5641 5642 5641 5642 5641 5637 5640 5644 5648 5649 5649 5651 5652 5658 5659 5661 5661 5661 5662 5663 5664 5665 5665 5666 5667 5666 5666 5666 5663 5663
5632 5633 5635 5637 5637 5639 5638 5638 5636 5638 5640 5642 5645 5645 5645 5646 5650 5653 5654 5654 5655 5657 5658 5659 5660 5661 5661 5662 5660 5660 5660 5660 5660
5628 5629 5632 5635 5634 5635 5635 5635 5635 5634 5638 5639 5640 5640 5640 5643 5643 5647 5648 5648 5650 5652 5654 5655 5656 5657 5656 5657 5657 5655 5655 5656 5657
5621 5623 5627 5630 5631 5632 5632 5630 5630 5631 5632 5633 5633 5633 5633 5635 5638 5640 5642 5643 5643 5646 5646 5651 5653 5653 5653 5652 5653 5652 5652 5652 5654
5613 5617 5621 5623 5625 5626 5627 5625 5624 5624 5625 5627 5627 5627 5628 5630 5632 5634 5636 5638 5638 5639 5641 5645 5649 5649 5650 5649 5649 5649 5648 5650 5650
5603 5606 5609 5613 5618 5619 5620 5618 5619 5618 5620 5621 5620 5621 5622 5625 5625 5627 5628 5630 5632 5634 5636 5638 5641 5643 5644 5645 5645 5646 5645 5646 5646
5591 5594 5597 5602 5607 5610 5613 5613 5612 5612 5612 5613 5613 5614 5618 5620 5621 5621 5623 5624 5625 5626 5628 5632 5634 5635 5637 5639 5641 5642 5643 5642 5642
5577 5581 5585 5589 5594 5597 5602 5605 5605 5605 5607 5609 5611 5612 5613 5613 5614 5615 5616 5617 5617 5619 5621 5623 5625 5627 5629 5631 5634 5637 5638 5638 5637
5562 5566 5570 5574 5577 5579 5586 5594 5598 5599 5599 5601 5605 5608 5608 5608 5608 5609 5609 5610 5611 5613 5615 5617 5618 5619 5621 5624 5626 5629 5632 5631 5631
5547 5550 5553 5557 5562 5567 5570 5573 5580 5587 5589 5591 5593 5595 5596 5599 5601 5602 5603 5603 5604 5606 5607 5609 5610 5612 5614 5616 5617 5620 5623 5625 5626
5530 5533 5536 5540 5544 5548 5551 5555 5560 5565 5577 5578 5578 5584 5582 5580 5592 5595 5596 5597 5598 5600 5601 5603 5604 5606 5607 5609 5610 5612 5615 5617 5619
5513 5517 5521 5524 5526 5530 5533 5538 5542 5549 5554 5565 5567 5569 5570 5573 5577 5583 5586 5588 5590 5593 5594 5595 5597 5598 5600 5603 5604 5604 5607 5610 5612
5496 5499 5503 5507 5510 5513 5517 5523 5527 5530 5533 5536 5542 5553 5559 5562 5563 5577 5573 5577 5580 5584 5587 5590 5591 5592 5593 5595 5598 5599 5598 5602 5605